Ardmore, OK

7:14 PM CDT on April 24, 2017 (GMT -0500)
Ardmore Municipal

Weather History for KADM - October, 2011

Change the Weather History Date:

Friday, October 21, 2011

  Actual Average Record
Temperature  
Mean Temperature 58 °F -  
Max Temperature 75 °F 71 °F 91 °F (2003)
Min Temperature 41 °F 52 °F 41 °F (2011)
Degree Days  
Heating Degree Days 7    
Growing Degree Days 8 (Base 50)    
Moisture  
Dew Point 40 °F    
Average Humidity 70    
Maximum Humidity 94    
Minimum Humidity 41    
Precipitation  
Precipitation 0.00 in - - ()
Sea Level Pressure  
Sea Level Pressure 30.11 in    
Wind  
Wind Speed 1 mph (ESE)    
Max Wind Speed 8 mph    
Max Gust Speed -    
Visibility 10 miles    
Events      
Averages and records for this station are not official NWS values.
T = Trace of Precipitation, MM = Missing Value Source: NWS Daily Summary

Daily Weather History Graph

Daily Weather History Graph

Search for Another Location

Airport or City:

Trip Planner

Search our weather history database for the weather conditions in past years. The results will help you decide how hot, cold, wet, or windy it might be!

Date:

Astronomy

Oct. 21, 2011 Rise Set
Actual Time 7:38 AM CDT 6:46 PM CDT
Civil Twilight 7:12 AM CDT 7:12 PM CDT
Nautical Twilight 6:43 AM CDT 7:41 PM CDT
Astronomical Twilight 6:14 AM CDT 8:10 PM CDT
Moon 1:45 AM CDT (10/21) 3:18 PM CDT (10/21)
Length of Visible Light 11h 59m
Length of Day
11h 08m
Waning Crescent, 33% of the Moon is Illuminated
Oct 21
Waning Crescent
Oct 26
New
Nov 2
First Quarter
Nov 10
Full
Nov 18
Last Quarter

Hourly Weather History & Observations

Time (CDT) Temp. Windchill Dew Point Humidity Pressure Visibility Wind Dir Wind Speed Gust Speed Precip Events Conditions
12:15 AM 46.4 °F - 37.4 °F 71% 30.10 in 10.0 mi Calm Calm - N/A   Clear
12:35 AM 50.0 °F - 35.6 °F 58% 30.10 in 10.0 mi Calm Calm - N/A   Clear
12:55 AM 48.2 °F - 35.6 °F 62% 30.10 in 10.0 mi Calm Calm - N/A   Clear
1:15 AM 46.4 °F - 37.4 °F 71% 30.10 in 10.0 mi Calm Calm - N/A   Clear
1:35 AM 44.6 °F - 37.4 °F 76% 30.10 in 10.0 mi Calm Calm - N/A   Clear
1:55 AM 44.6 °F - 37.4 °F 76% 30.10 in 10.0 mi Calm Calm - N/A   Clear
2:15 AM 42.8 °F - 37.4 °F 81% 30.11 in 10.0 mi Calm Calm - N/A   Clear
2:35 AM 42.8 °F - 37.4 °F 81% 30.11 in 10.0 mi Calm Calm - N/A   Clear
2:55 AM 44.6 °F - 37.4 °F 76% 30.11 in 10.0 mi Calm Calm - N/A   Clear
3:15 AM 44.6 °F - 37.4 °F 76% 30.11 in 10.0 mi Calm Calm - N/A   Clear
3:35 AM 42.8 °F - 37.4 °F 81% 30.11 in 10.0 mi Calm Calm - N/A   Clear
3:55 AM 42.8 °F - 35.6 °F 76% 30.11 in 10.0 mi Calm Calm - N/A   Clear
4:15 AM 42.8 °F - 37.4 °F 81% 30.11 in 10.0 mi Calm Calm - N/A   Clear
4:35 AM 41.0 °F - 37.4 °F 87% 30.11 in 10.0 mi Calm Calm - N/A   Clear
4:55 AM 42.8 °F - 35.6 °F 76% 30.11 in 10.0 mi Calm Calm - N/A   Clear
5:15 AM 41.0 °F - 35.6 °F 81% 30.10 in 10.0 mi Calm Calm - N/A   Clear
5:35 AM 41.0 °F - 35.6 °F 81% 30.11 in 10.0 mi Calm Calm - N/A   Clear
5:55 AM 44.6 °F - 33.8 °F 66% 30.11 in 10.0 mi Calm Calm - N/A   Clear
6:15 AM 46.4 °F 45.2 °F 33.8 °F 62% 30.11 in 10.0 mi ESE 3.5 mph - N/A   Clear
6:35 AM 46.4 °F 42.9 °F 33.8 °F 62% 30.11 in 10.0 mi East 6.9 mph - N/A   Clear
6:55 AM 48.2 °F - 33.8 °F 58% 30.12 in 10.0 mi ESE 5.8 mph - N/A   Clear
8:55 AM 51.8 °F - 35.6 °F 54% 30.16 in 10.0 mi ESE 5.8 mph - N/A   Clear
9:55 AM 57.2 °F - 39.2 °F 51% 30.17 in 10.0 mi ESE 5.8 mph - N/A   Clear
11:55 AM 68.0 °F - 46.4 °F 46% 30.15 in 10.0 mi SE 6.9 mph - N/A   Clear
1:55 PM 73.4 °F - 50.0 °F 44% 30.10 in 10.0 mi SE 5.8 mph - N/A   Clear
2:55 PM 73.4 °F - 50.0 °F 44% 30.08 in 10.0 mi NE 8.1 mph - N/A   Clear
4:55 PM 75.2 °F - 50.0 °F 41% 30.07 in 10.0 mi SE 6.9 mph - N/A   Clear
5:55 PM 73.4 °F - 48.2 °F 41% 30.06 in 10.0 mi ESE 4.6 mph - N/A   Clear
10:15 PM 53.6 °F - 51.8 °F 94% 30.09 in 10.0 mi Calm Calm - N/A   Clear
10:35 PM 53.6 °F - 48.2 °F 82% 30.10 in 10.0 mi Calm Calm - N/A   Clear
10:55 PM 51.8 °F - 50.0 °F 94% 30.10 in 10.0 mi Calm Calm - N/A   Clear
11:15 PM 51.8 °F - 48.2 °F 88% 30.10 in 10.0 mi Calm Calm - N/A   Clear
11:35 PM 51.8 °F - 46.4 °F 82% 30.09 in 10.0 mi Calm Calm - N/A   Clear
11:55 PM 53.6 °F - 48.2 °F 82% 30.09 in 10.0 mi Calm Calm - N/A   Clear